Location: Herm
(49.4830°N, 2.4500°W)
Time: 17:17:57
(UTC+00:00)

ISS - Visible Passes

Search period start: 11 December 2017 00:00
Search period end: 21 December 2017 00:00
Orbit: 402 x 407 km, 51.6° (Epoch: 11 December)

Date Brightness Start Highest point End Pass type
(mag) Time Alt. Az. Time Alt. Az. Time Alt. Az.
11 Dec -3.8 17:09:35 10° WNW 17:12:52 66° N 17:15:48 12° E visible
11 Dec -2.2 18:46:09 10° WNW 18:48:28 34° WSW 18:48:28 34° WSW visible
12 Dec -3.5 17:53:50 10° WNW 17:57:06 64° SSW 17:58:40 27° SE visible
12 Dec -0.2 19:31:13 10° WSW 19:31:21 10° WSW 19:31:21 10° WSW visible
13 Dec -3.8 17:01:33 10° WNW 17:04:52 90° S 17:08:10 10° ESE visible
13 Dec -1.7 18:38:23 10° W 18:41:03 23° SW 18:41:44 21° SSW visible
14 Dec -2.3 17:45:52 10° W 17:48:56 36° SSW 17:51:58 10° SE visible
15 Dec -3.1 16:53:29 10° WNW 16:56:44 55° SSW 16:59:57 10° SE visible
15 Dec -0.7 18:31:17 10° WSW 18:32:38 12° SW 18:33:59 10° SSW visible
16 Dec -1.0 17:38:08 10° W 17:40:35 20° SW 17:43:02 10° S visible
17 Dec -1.7 16:45:29 10° W 16:48:27 30° SW 16:51:23 10° SSE visible
